This demonstration page uses our WeatherBlox Daily Observations layout. Learn more.

Left ArrowRight Arrow

38.20091, -84.87328

Hourly Observations for August 26, 2022

Temp ( °F °C ) Dew Point ( °F °C ) Humidity (%) Winds ( mph kmh ) Pressure ( in mb ) Visibility ( mi km ) Precip ( " mm )
12:53 am 00:53 Clear 67 19.4 65 18.3 93 93 Calm 30.02 1017 10 16 0.00 0.00
1:53 am 01:53 Clear 66 18.9 64 17.8 93 93 Calm 30.02 1017 7 11 0.00 0.00
2:53 am 02:53 Clear 66 18.9 64 17.8 93 93 Calm 30.01 1016 9 14 0.00 0.00
3:53 am 03:53 Clear 66 18.9 64 17.8 93 93 Calm 30.00 1016 8 13 0.00 0.00
4:53 am 04:53 Clear 66 18.9 63 17.2 90 90 Calm 30.00 1016 9 14 0.00 0.00
5:53 am 05:53 Clear 65 18.3 63 17.2 93 93 Calm 29.99 1016 8 13 0.00 0.00
6:53 am 06:53 Partly Cloudy 64 17.8 63 17.2 96 96 Calm 29.99 1016 9 14 0.00 0.00
7:53 am 07:53 Partly Cloudy 66 18.9 64 17.8 93 93 Calm 30.01 1016 7 11 0.00 0.00
8:53 am 08:53 Partly Cloudy 72 22.2 68 20 87 87 SW 3 6 30.03 1017 10 16 0.00 0.00
9:53 am 09:53 Mostly Cloudy 75 23.9 68 20 79 79 SW 5 7 30.03 1017 10 16 0.00 0.00
10:53 am 10:53 Mostly Sunny 81 27.2 70 21.1 69 69 W 5 7 30.02 1017 10 16 0.00 0.00
11:53 am 11:53 Sunny 84 28.9 67 19.4 57 57 VRB 6 9 30.02 1017 10 16 0.00 0.00
12:53 pm 12:53 Sunny 85 29.4 66 18.9 53 53 NW 7 11 30.01 1016 10 16 0.00 0.00
1:53 pm 13:53 Mostly Cloudy 85 29.4 68 20 57 57 VRB 3 6 30.00 1016 10 16 0.00 0.00
2:53 pm 14:53 Mostly Cloudy 86 30 67 19.4 53 53 WNW 6 9 29.98 1015 10 16 0.00 0.00
3:53 pm 15:53 Sunny 88 31.1 67 19.4 50 50 Calm 29.96 1015 10 16 0.00 0.00
4:45 pm 16:45 Partly Cloudy with Nearby Thunderstorms 87 30.6 67 19.4 51 51 VRB 3 6 29.92 1013 10 16 0.00 0.00
4:53 pm 16:53 Partly Cloudy with Nearby Thunderstorms 86 30 67 19.4 53 53 WNW 6 9 29.95 1014 10 16 0.00 0.00
5:00 pm 17:00 Mostly Sunny 83 28.3 68 20 61 61 NW 13 20 29.94 1014 10 16 0.00 0.00
5:20 pm 17:20 Mostly Cloudy with Nearby Thunderstorms 77 25 68 20 74 74 WNW 7 11 29.96 1015 5 8 0.02 0.51
5:40 pm 17:40 Cloudy 76 24.4 70 21.1 82 82 SW 3 6 29.95 1014 10 16 0.03 0.76
5:53 pm 17:53 Cloudy with Nearby Thunderstorms 77 25 71 21.7 82 82 SW 6 9 29.97 1015 10 16 0.03 0.76
6:10 pm 18:10 Mostly Cloudy 80 26.7 72 22.2 76 76 Calm 29.95 1014 10 16 0.00 0.00
6:53 pm 18:53 Cloudy 78 25.6 69 20.6 74 74 Calm 29.97 1015 10 16 0.00 0.00
7:53 pm 19:53 Sunny 76 24.4 71 21.7 85 85 Calm 29.97 1015 10 16 0.00 0.00
8:53 pm 20:53 Clear 74 23.3 71 21.7 91 91 Calm 29.99 1016 10 16 0.00 0.00
9:53 pm 21:53 Mostly Clear 71 21.7 70 21.1 96 96 Calm 30.00 1016 8 13 0.00 0.00
10:53 pm 22:53 Clear with Mist and Fog 70 21.1 68 20 93 93 Calm 30.01 1016 6 10 0.00 0.00
11:53 pm 23:53 Clear with Mist and Fog 71 21.7 69 20.6 93 93 Calm 30.02 1017 4 6 0.00 0.00

Powered by AerisWeather